Retour au catalogue

STARLINK-32161

ActifCommunicationsVLEO
NORAD 60593·PAYLOAD·🇺🇸 United States

Lancé Aug 20, 2024 depuis Cape Canaveral Space Force Station

Loading…

Prochains Passages (prochaines 24 heures)

TLE

FraisSource: CelesTrak SupGP

Époque: Sep 15, 2026, 03:18 UTC

1 60593C 24150L   26258.13798611  .00058087  00000+0  17164-2 0  2580
2 60593  53.1566 142.8506 0001300  84.7350   5.1331 15.34357706    13

Suivez STARLINK-32161 en temps réel avec AllMySat

Download on the App Store